Location: Gensac
(43.2177°N, 1.1313°E)
Time: 23:26:20
(UTC+00:00)

IGS 5A - Pass Details

Date: 08 December 2025
Orbit: 551 x 554 km, 97.4° (Epoch: 8 January)

Event Time Altitude Azimuth Distance (km) Brightness Sun altitude
Rises 06:29:42 0° 2° (N) 2,748 6.7 -8.1°
Reaches altitude 10° 06:31:59 10° 353° (N) 1,847 5.7 -7.7°
Maximum altitude 06:35:34 33° 289° (WNW) 953 4.0 -7.2°
Drops below altitude 10° 06:39:08 10° 225° (SW) 1,832 5.8 -6.6°
Sets 06:41:23 0° 216° (SW) 2,720 6.8 -6.2°
